Regional Weather Roundup
Issued by NWS Goodland, KS

Home | Current Version | Previous Version | Text Only | Print | Product List | Glossary On
Versions: 1 2 3 4 5 6 7 8 9 10 11 12 13 14 15 16 17 18 19 20 21 22 23 24 25 26 27 28 29 30 31 32 33 34 35 36 37 38 39 40 41 42 43 44 45 46 47 48 49 50
000
ASUS43 KGLD 180908
RWRGLD

GOODLAND FORECAST AREA HOURLY WEATHER ROUNDUP
NATIONAL WEATHER SERVICE GOODLAND KS
200 AM MST MON DEC 18 2017

...OFFICIAL OBSERVATIONS...

CITY           SKY/WX    TMP DP  RH WIND       PRES   REMARKS
GOODLAND KS    CLOUDY    26  21  81 W10       29.99R WCI  16
HILL CITY KS   CLEAR     24  22  91 W3        30.02S
IMPERIAL NEB   CLOUDY    24  20  84 W9        29.97S
MCCOOK NEB     CLOUDY    22  20  92 SW13      29.99R WCI  10
AKRON CO       CLOUDY    23  18  81 W9        29.96R
BURLINGTON CO  CLOUDY    20  18  92 W9        29.98R
LIMON CO       CLOUDY     6   4  91 CALM      29.97R
$$

...UNOFFICIAL OBSERVATIONS...

CITY           SKY/WX    TMP DP  RH WIND       PRES   REMARKS
COLBY KS       CLOUDY    21  21 100 W7        30.02R
LENORA KS        N/A     27  32 100 W8          N/A
NORTON KS      CLEAR     19  16  86 SW6       29.99
SHARON SPRINGS   N/A     21  18  87 SW6         N/A
TRENTON NEB      N/A     23  32 100 CALM        N/A
KIT CARSON CO    N/A     15  12  86 CALM        N/A
YUMA CO        FAIR      21  18  86 W8        29.97R
$$




USA.gov is the U.S. government's official web portal to all federal, state and local government web resources and services.